Regional Weather Roundup
Issued by NWS

Home | Current Version | Previous Version | Text Only | Print | Product List | Glossary On
Versions: 1 2 3 4 5 6 7 8 9 10 11 12 13 14 15 16 17 18 19 20 21 22 23 24 25 26 27 28 29 30 31 32 33 34 35 36 37 38 39 40 41 42 43 44 45 46 47 48 49 50
000
ASUS43 KBIS 280101
RWRND

NORTH DAKOTA REGIONAL WEATHER ROUNDUP
NATIONAL WEATHER SERVICE BISMARCK ND
800 PM CDT FRI MAR 27 2015

NOTE: "FAIR" INDICATES FEW OR NO CLOUDS BELOW 12,000 FEET WITH NO
SIGNIFICANT WEATHER AND/OR OBSTRUCTIONS TO VISIBILITY.


NDZ001>003-009>011-017-280200-
NORTHWEST NORTH DAKOTA

CITY           SKY/WX    TMP DP  RH WIND       PRES   REMARKS
WILLISTON      PTCLDY    53  37  54 N7        29.88S
MINOT          CLOUDY    38  32  79 NE10      29.92R
MINOT AFB      CLOUDY    37  37  99 E9        29.91R
$$

NDZ018>021-031>035-040>046-280200-
SOUTHWEST NORTH DAKOTA

CITY           SKY/WX    TMP DP  RH WIND       PRES   REMARKS
BISMARCK       MOCLDY    45  34  65 NE6       29.91R
DICKINSON      MOCLDY    56  35  45 N8        29.88S
GARRISON         N/A     50  39  66 N6        29.90R
HETTINGER ARPT PTCLDY    57  34  41 N12       29.90R
$$

NDZ004>008-012>016-024-026-027-054-280200-
NORTHEAST NORTH DAKOTA

CITY           SKY/WX    TMP DP  RH WIND       PRES   REMARKS
GRAND FORKS    CLOUDY    31  21  66 SE14      30.08S
GRND FRKS AFB  CLOUDY    30  25  80 S14       30.07R WCI  20
DEVILS LAKE    CLOUDY    28  27  93 S14       29.98F WCI  17
$$

NDZ022-023-025-028>030-036>039-047>053-280200-
SOUTHEAST NORTH DAKOTA

CITY           SKY/WX    TMP DP  RH WIND       PRES   REMARKS
FARGO          FLURRIES  31  22  69 SE9       30.09F
JAMESTOWN      FRZ RAIN  29  27  92 SE14      30.00R FOG     WCI  18
$$




USA.gov is the U.S. government's official web portal to all federal, state and local government web resources and services.